Location: Flensburg
(54.6357°N, 9.5142°E)
Time: 14:37:43
(UTC+01:00)

ISS - Pass Details

Date: 13 January 2018
Orbit: 402 x 407 km, 51.6° (Epoch: 18 January)

Event Time Altitude Azimuth Distance (km) Brightness Sun altitude
Exits shadow 05:33:54 14° 150° (SSE) 1,238 -1.0 -25.5°
Drops below altitude 10° 05:34:33 10° 143° (SE) 1,464 -0.5 -25.4°
Sets 05:36:48 0° 131° (SE) 2,323 0.8 -25.1°
